Dewpoint
49 41 41 39 32 24 22 20 34 27 27 30 32 35 34 44 38 31 59 63 62 62 66 68 69 70 68 68 67 67 67 65 66 66 69 69 68 66 65 64 63 63 63 64 63 64 65 64 63
47 38 37 33 21 18 18 21 26 26 29 42 40 41 44 47 56 58 60 62 62 64 66 67 69 70 68 68 67 66 65 65 65 66 68 68 67 65 65 64 63 62 63 64 64 64 65 64 63
42 33 30 30 20 16 18 22 26 27 31 31 34 43 47 51 56 59 60 61 63 65 66 68 69 70 68 67 67 65 64 64 64 65 67 67 66 64 64 63 63 62 63 63 63 64 64 65 64
35 33 29 18 16 19 17 24 28 28 28 31 39 44 48 56 58 59 62 62 63 65 67 68 70 69 68 68 66 65 64 64 64 64 66 66 64 64 63 62 62 62 63 63 62 64 64 64 65
34 30 25 24 20 19 29 29 29 26 27 31 37 41 49 56 60 61 63 62 63 65 67 68 69 69 69 68 67 66 64 64 64 64 64 64 63 62 62 62 62 62 63 62 63 65 65 64 64
29 27 22 21 19 19 29 30 27 25 26 29 42 47 50 57 60 61 62 62 62 65 67 68 67 68 69 68 68 67 66 64 65 64 64 64 63 62 61 61 61 61 62 62 63 64 63 62 62
28 26 21 24 18 19 20 28 23 25 27 27 43 43 46 55 60 61 62 62 63 65 67 67 68 67 66 67 67 66 66 65 65 65 65 65 63 62 62 62 61 61 61 61 63 63 63 63 62
31 27 22 23 17 17 20 24 23 26 26 29 44 42 48 55 60 61 63 64 64 66 67 67 67 67 67 66 64 64 66 65 65 65 64 63 62 62 62 62 62 61 61 62 63 62 62 62 62
26 22 19 17 17 18 20 21 22 25 26 32 31 43 45 57 60 61 62 63 65 66 66 67 67 67 67 66 64 63 64 64 63 62 61 59 59 57 57 60 61 61 62 61 62 61 61 60 59
23 22 19 19 18 20 21 21 21 28 26 35 36 44 51 58 59 60 61 62 62 63 65 65 66 66 66 66 64 64 64 63 62 60 59 58 56 55 57 58 60 61 61 61 61 60 58 55 53
24 19 18 21 23 22 22 20 21 22 28 23 26 39 52 56 58 59 60 61 62 63 64 65 65 66 66 66 65 64 63 62 61 59 58 57 56 56 56 57 58 58 57 56 55 53 52 52 51
18 21 18 26 26 21 20 21 20 19 19 22 26 42 53 56 58 58 58 58 60 62 64 65 65 65 65 66 65 65 64 62 60 59 58 57 56 55 55 56 55 56 55 52 51 51 50 50 49
17 16 24 27 24 22 24 21 20 21 20 24 26 49 53 56 58 59 59 58 59 60 62 63 64 65 65 65 65 64 64 62 61 59 58 57 56 55 54 54 54 54 53 51 50 48 48 48 47
17 20 21 25 23 24 20 19 30 17 23 21 29 46 52 54 57 55 55 57 57 60 61 62 63 64 65 65 64 63 63 63 62 60 59 57 56 55 55 54 53 53 52 51 49 47 47 46 46
22 15 18 21 23 22 23 10 18 20 20 22 25 31 48 52 52 54 56 57 57 59 60 61 63 63 63 64 64 64 63 63 63 60 60 58 57 56 55 54 53 52 51 50 48 44 44 43 43
18 15 4 9 24 24 11 -2 6 21 22 18 21 23 30 42 49 52 53 55 57 57 59 60 62 63 63 63 64 64 63 62 63 62 60 59 58 57 55 54 53 53 52 50 47 43 43 42 42
19 3 11 12 23 25 19 11 14 23 22 20 19 20 22 24 29 39 49 51 54 56 56 59 61 62 62 63 63 64 64 63 63 63 62 61 60 58 56 54 53 52 52 49 46 42 41 39 36
13 16 14 13 19 23 22 21 21 22 23 21 21 21 21 21 22 25 33 47 50 52 55 57 60 61 62 62 63 63 63 64 63 63 63 61 61 59 57 56 54 53 51 48 46 42 38 35 34
16 15 14 15 23 22 21 21 22 22 22 21 21 21 21 22 23 24 24 29 45 49 51 54 57 59 61 61 61 62 62 63 63 63 63 62 62 61 58 57 56 54 51 48 45 40 35 31 29
17 16 15 16 23 22 20 19 20 21 20 20 19 18 19 19 20 22 25 25 31 40 49 51 54 57 60 61 61 61 62 62 63 63 63 63 63 62 60 59 57 55 52 50 46 40 36 32 30
18 16 15 13 19 17 18 10 11 13 20 19 19 20 18 19 19 20 21 22 25 30 41 49 52 54 58 59 59 54 54 53 57 59 62 63 63 62 61 60 58 55 53 50 46 43 40 35 30
18 19 18 17 16 7 19 3 14 15 16 14 12 12 17 21 21 23 25 26 25 25 31 42 49 54 57 58 59 59 59 59 58 60 60 61 62 62 62 61 59 57 54 52 48 45 42 42 33
18 23 19 20 19 21 18 13 12 13 10 8 19 20 23 25 25 26 27 30 31 34 32 36 47 53 55 57 59 59 58 59 55 54 55 55 58 61 62 61 59 57 55 53 50 47 44 43 40
26 21 21 25 17 10 14 7 5 5 7 12 17 23 27 28 31 32 33 33 32 34 37 39 43 49 53 55 56 57 58 56 51 49 52 51 55 58 56 58 59 58 56 55 52 49 46 45 43
19 12 10 10 14 8 17 13 10 11 13 15 20 26 28 31 32 33 33 33 33 35 35 39 41 43 49 52 53 53 55 54 52 50 51 48 49 51 55 54 54 56 56 56 54 51 49 46 45
19 13 12 5 10 9 19 15 12 19 18 20 24 26 27 29 32 32 33 34 35 36 36 37 39 39 42 45 49 50 50 51 51 49 49 50 50 51 50 54 55 55 55 55 55 53 50 48 47
22 16 17 17 13 16 13 15 13 20 23 25 26 27 27 29 31 31 32 34 35 36 36 37 38 39 40 41 43 45 46 47 48 48 47 49 48 47 46 48 50 53 54 54 54 53 52 50 48
22 24 18 20 8 7 11 11 10 23 25 27 27 27 27 29 30 31 32 33 34 34 35 36 37 38 39 40 41 42 43 45 46 46 46 46 46 45 44 44 46 46 48 49 51 51 51 50 49
23 22 22 21 20 15 12 13 16 24 27 27 28 28 28 28 30 31 32 33 34 34 34 34 35 37 39 39 40 41 42 43 44 45 45 45 44 44 43 43 44 45 45 46 48 48 48 48 48
24 22 21 20 17 20 20 17 23 27 28 30 30 29 29 30 31 32 33 34 35 34 34 34 35 36 37 39 40 40 41 41 42 42 43 43 43 42 42 41 42 44 46 46 46 47 47 47 45
Lifted_Index
9 8 7 6 5 5 4 4 3 3 3 3 3 4 3 2 2 1 0 -0 0 1 -0 -1 -2 -2 -2 -1 -0 -0 0 0 0 -1 -2 -2 -1 -0 1 2 2 2 2 2 2 2 2 2 3
8 8 7 6 5 4 4 4 4 4 4 4 4 3 3 1 0 0 -0 -0 0 0 -1 -1 -2 -2 -2 -1 -0 0 0 0 0 -1 -2 -2 -1 0 1 2 2 2 2 2 2 2 2 2 2
8 7 6 6 5 4 4 5 5 5 5 5 4 3 2 1 -0 -1 -0 -0 0 -0 -1 -2 -2 -2 -2 -1 -0 0 1 1 0 -1 -1 -1 -1 1 1 2 2 2 2 2 2 2 2 2 2
8 7 6 6 5 5 5 6 6 6 6 6 5 3 2 0 -0 -1 -0 0 -0 -1 -1 -2 -3 -2 -2 -1 -1 -0 0 1 0 -0 -1 -1 0 1 2 2 3 2 2 2 2 1 1 1 1
7 7 6 5 5 6 6 6 6 6 6 6 5 3 1 -0 -1 -1 -1 -0 -0 -1 -2 -2 -3 -3 -2 -2 -1 -1 0 0 0 0 0 0 1 2 3 3 3 3 2 2 2 1 1 2 2
7 6 6 5 5 6 6 7 7 7 7 6 5 3 1 -0 -1 -1 -1 -0 -0 -1 -2 -2 -3 -3 -3 -2 -2 -1 -0 0 0 1 1 1 2 3 3 3 3 3 3 2 2 1 2 2 3
7 6 6 5 5 6 6 7 7 7 7 6 5 4 2 -0 -1 -1 -1 -1 -1 -1 -2 -2 -3 -3 -3 -2 -2 -1 -0 0 1 1 1 1 2 3 3 3 3 3 3 2 2 2 2 3 3
7 6 6 5 5 6 7 7 7 7 7 7 6 5 3 0 -1 -1 -1 -1 -1 -2 -2 -2 -2 -2 -2 -2 -1 -1 -0 1 1 1 2 2 3 4 4 4 3 3 3 2 2 2 3 3 3
7 6 6 6 6 6 7 7 7 7 7 7 7 6 4 0 -1 -1 -1 -1 -2 -2 -2 -2 -2 -2 -2 -1 -1 -0 0 1 2 2 3 3 4 5 5 4 4 3 3 3 3 3 4 4 4
7 6 6 6 6 7 7 7 7 7 7 7 8 7 4 0 -1 -1 -1 -1 -2 -2 -2 -2 -2 -2 -2 -1 -1 -0 0 1 2 3 3 4 4 5 5 5 4 4 4 4 4 5 5 5 5
7 7 7 7 7 7 7 7 7 7 7 7 8 6 3 0 -1 -1 -1 -1 -1 -2 -2 -2 -1 -1 -1 -1 -1 -0 0 1 2 3 3 3 4 4 5 5 4 4 4 5 5 6 6 6 6
7 7 7 7 7 7 7 7 7 7 7 8 8 6 3 1 -0 -1 -1 -1 -1 -1 -1 -1 -1 -1 -1 -1 -1 -0 0 1 2 2 3 3 3 3 4 4 4 4 5 5 5 6 6 6 6
7 7 8 8 8 7 7 7 7 7 7 8 8 7 4 2 0 -0 -1 -1 -1 -1 -1 -1 -1 -0 -1 -1 -0 -0 0 1 1 2 2 2 3 3 3 4 4 4 5 5 5 5 6 6 6
7 7 7 8 8 7 7 6 6 7 7 7 7 7 5 3 1 1 -0 -0 -1 -1 -1 -1 -0 -0 -0 -0 -0 -0 0 1 1 1 2 2 2 2 3 3 4 4 5 5 5 5 5 5 6
7 7 7 7 7 7 7 6 6 6 7 7 7 7 6 5 3 2 1 1 0 -0 -1 -1 -0 -0 -0 0 0 0 0 0 1 1 1 1 2 2 2 3 3 4 5 5 5 5 5 5 5
6 6 5 6 7 7 6 5 5 6 6 6 7 7 7 6 5 4 3 2 1 1 -0 -1 -1 -0 -0 -0 -0 0 0 0 0 1 1 1 1 2 2 3 3 3 4 4 5 5 5 5 5
5 4 4 5 6 6 5 5 5 6 6 6 6 7 7 7 6 6 5 4 3 2 1 -0 -1 -1 -0 -0 -0 -0 -0 -0 -0 -0 0 0 1 1 2 2 3 3 3 4 4 4 4 4 4
4 4 4 5 6 6 5 4 5 6 6 6 6 6 6 6 6 7 7 6 5 4 2 1 0 -0 -0 -0 -0 -0 -0 -0 -0 -0 -0 -0 0 0 1 2 2 3 3 3 3 4 4 4 4
5 5 5 5 6 6 5 4 5 6 6 6 6 6 6 6 6 7 8 8 7 6 5 3 2 1 0 -0 -1 -1 -1 -1 -1 -1 -1 -1 -1 -0 0 1 2 2 2 2 3 3 3 4 4
6 5 5 6 6 6 5 4 5 5 5 5 5 6 6 6 6 7 7 8 8 8 7 6 4 2 1 0 -0 -1 -1 -1 -1 -1 -1 -1 -1 -1 -0 0 1 1 2 2 2 2 3 3 4
5 5 5 6 6 6 5 4 4 5 5 5 5 6 6 6 6 7 7 8 8 8 8 7 6 4 3 1 0 -0 -1 -1 -1 -1 -1 -1 -1 -1 -1 -0 0 0 1 1 2 2 2 3 3
6 6 6 6 5 5 4 3 3 4 5 5 5 6 6 6 7 7 7 8 8 8 8 8 7 6 4 2 1 1 0 -0 -0 -1 -1 -1 -1 -1 -1 -0 0 0 0 1 1 2 2 3 3
7 7 7 7 5 4 4 3 3 4 5 5 6 6 7 7 7 7 8 8 8 8 8 8 8 7 5 3 2 1 1 0 0 -0 -0 -1 -1 -1 -0 0 0 0 0 1 1 1 2 2 2
8 7 6 5 4 3 4 4 4 5 6 6 7 7 8 8 8 8 8 7 8 8 8 8 8 7 6 4 3 2 1 1 1 0 0 0 0 0 0 1 1 1 0 0 1 1 1 2 2
7 6 4 3 2 2 4 4 5 6 7 8 8 8 8 8 8 8 8 8 8 8 8 8 8 8 7 6 4 3 2 2 1 1 1 1 1 1 1 2 2 1 1 1 1 1 2 2 2
6 5 4 2 1 2 4 5 6 8 8 9 9 9 8 8 8 8 8 8 8 8 8 8 8 8 8 7 6 5 4 4 3 2 2 2 2 2 3 3 3 3 3 2 3 3 3 3 3
6 6 5 4 3 2 3 5 6 7 8 8 8 8 8 8 8 8 8 8 8 8 8 8 8 8 8 8 7 7 6 6 5 4 4 4 4 4 5 5 5 5 5 5 4 4 5 5 5
7 6 6 5 3 2 2 4 6 7 7 8 8 8 8 8 8 8 8 8 8 8 8 8 7 7 7 7 7 7 7 7 6 6 6 5 6 6 6 6 6 6 6 6 6 6 6 6 6
6 6 5 5 4 2 2 4 6 7 7 7 7 7 7 7 8 8 8 8 8 8 8 8 7 7 7 7 7 7 7 7 6 6 6 6 6 6 6 5 6 6 6 6 6 6 7 7 7
4 5 5 5 4 4 3 4 6 7 7 7 7 7 7 7 7 7 7 7 7 7 8 7 7 7 7 7 7 7 7 6 6 6 6 6 5 5 5 5 5 5 6 6 6 7 7 7 7